DW9615 Home Hill AU current weather conditions

sailwx.info

Wind from 066 at 6 knots gusting 9

Air temperature 27.2° C
Dewpoint 17.7° C

Last reported at 2014-Oct-25 05:38 UTC.
Time now 2014-Oct-25 06:18 UTC

Location: S 19°40' E 147°25'.
View on Google Maps.

See reports from other nearby stations

  
Tides and Currents Weather Stations Pressure Air Temp Water Temp Dewpoint Dewpoint Depression Visibility Wind Speed Wind Dir Waves Ship Positions
date/time (UTC)wind fromknots sea level pressurealtimeterstation pressurevisibilityair tempwater tempwave heightnotes
2014-Oct-25 05:38 066 6 gusting 9 27.2
2014-Oct-25 05:23 064 3 gusting 8 27.2
2014-Oct-25 05:08 067 2 gusting 8 27.2
2014-Oct-25 04:53 045 2 gusting 11 27.8
2014-Oct-25 04:38 033 1 gusting 8 27.8
2014-Oct-25 04:23 063 4 gusting 11 27.8
2014-Oct-25 04:08 077 6 gusting 11 27.8
2014-Oct-25 03:53 064 5 gusting 10 27.8
2014-Oct-25 03:38 052 2 gusting 9 27.8
2014-Oct-25 03:23 102 1 gusting 9 27.8
2014-Oct-25 03:08 102 3 gusting 6 27.8
2014-Oct-25 02:53 067 5 gusting 12 27.2
2014-Oct-25 02:38 090 4 gusting 13 27.2
2014-Oct-25 02:23 077 3 gusting 6 27.8
2014-Oct-25 02:08 109 5 gusting 7 27.8
2014-Oct-25 01:53 088 4 gusting 10 27.8
2014-Oct-25 01:38 138 6 gusting 11 27.2
2014-Oct-25 01:23 079 4 gusting 10 27.2
2014-Oct-25 01:08 084 5 gusting 13 27.2
2014-Oct-25 00:53 104 5 gusting 9 27.2
2014-Oct-25 00:38 059 4 gusting 13 26.7
2014-Oct-25 00:23 091 5 gusting 11 26.7
2014-Oct-25 00:08 131 2 gusting 11 26.7
2014-Oct-24 23:53 102 5 gusting 11 26.7
2014-Oct-24 23:38 067 4 gusting 12 26.1
2014-Oct-24 23:22 090 6 gusting 13 25.6
2014-Oct-24 23:07 094 6 gusting 12 25.6
2014-Oct-24 22:52 080 6 gusting 10 25.0
2014-Oct-24 22:37 097 3 gusting 7 25.6
2014-Oct-24 22:22 165 5 gusting 11 25.0
2014-Oct-24 22:07 150 1 gusting 6 25.0
2014-Oct-24 21:52 164 1 gusting 6 24.4
2014-Oct-24 21:37 136 2 gusting 6 23.9
2014-Oct-24 21:22 126 1 gusting 6 22.8
2014-Oct-24 21:07 154 1 gusting 4 22.2
2014-Oct-24 20:52 163 0 gusting 1 20.6
2014-Oct-24 20:37 202 0 gusting 4 20.0
2014-Oct-24 20:22 154 18.9
2014-Oct-24 20:07 180 17.8
2014-Oct-24 19:52 173 17.2
2014-Oct-24 19:37 190 17.2
2014-Oct-24 19:22 190 17.2
2014-Oct-24 19:07 197 17.2
2014-Oct-24 18:52 197 17.2
2014-Oct-24 18:37 197 17.2
2014-Oct-24 18:22 199 17.2
2014-Oct-24 18:07 153 17.2
2014-Oct-24 17:52 189 17.2
2014-Oct-24 17:37 187 17.2
2014-Oct-24 17:22 190 17.2
2014-Oct-24 17:07 190 17.8
2014-Oct-24 16:51 184 17.8
2014-Oct-24 16:36 190 17.8
2014-Oct-24 16:21 204 17.8
2014-Oct-24 16:06 178 17.8
2014-Oct-24 15:51 190 17.8
2014-Oct-24 15:36 188 18.3
2014-Oct-24 15:21 173 18.3
2014-Oct-24 15:06 189 18.3
2014-Oct-24 14:51 169 18.3
2014-Oct-24 14:06 172 18.9
2014-Oct-24 13:51 172 18.9
2014-Oct-24 13:36 172 19.4
2014-Oct-24 13:21 161 20.0
2014-Oct-24 13:06 112 20.6
2014-Oct-24 12:51 109 0 gusting 4 21.1
2014-Oct-24 12:37 140 1 gusting 4 21.1
2014-Oct-24 12:21 079 1 gusting 4 21.1
2014-Oct-24 12:06 108 0 gusting 3 21.1
2014-Oct-24 11:51 107 1 gusting 5 21.7
2014-Oct-24 11:36 109 1 gusting 5 21.7
2014-Oct-24 11:21 112 2 gusting 6 21.7
2014-Oct-24 11:06 096 0 gusting 3 21.7
2014-Oct-24 10:51 080 1 gusting 6 22.2
2014-Oct-24 10:36 088 2 gusting 6 22.2
2014-Oct-24 10:21 109 4 gusting 7 22.2
2014-Oct-24 10:06 098 2 gusting 5 22.2
2014-Oct-24 09:51 047 1 gusting 5 22.2
2014-Oct-24 09:36 088 2 gusting 6 22.2
2014-Oct-24 09:21 083 2 gusting 6 22.8
2014-Oct-24 09:06 097 3 gusting 6 22.8
2014-Oct-24 08:51 067 2 gusting 6 22.8
2014-Oct-24 08:36 086 4 gusting 7 23.3
2014-Oct-24 08:21 079 4 gusting 9 23.3
2014-Oct-24 08:06 041 6 gusting 10 23.9
2014-Oct-24 07:51 070 4 gusting 11 23.9
2014-Oct-24 07:36 095 6 gusting 12 24.4
2014-Oct-24 07:21 041 6 gusting 11 25.0
2014-Oct-24 07:06 076 6 gusting 13 25.0
2014-Oct-24 06:51 084 6 gusting 11 25.6
2014-Oct-24 06:36 069 5 gusting 12 25.6
2014-Oct-24 06:21 082 5 gusting 12 26.7
2014-Oct-24 06:06 050 4 gusting 11 26.7
2014-Oct-24 05:51 043 1 gusting 12 26.1
2014-Oct-24 05:36 108 5 gusting 10 26.7
2014-Oct-24 05:21 105 6 gusting 11 26.7
2014-Oct-24 05:06 108 6 gusting 13 26.1
2014-Oct-24 04:51 056 4 gusting 13 26.7
2014-Oct-24 04:36 053 6 gusting 12 26.7
2014-Oct-24 04:21 114 4 gusting 13 26.7
2014-Oct-24 04:06 104 6 gusting 11 27.2
2014-Oct-24 03:51 105 6 gusting 13 27.2
2014-Oct-24 03:35 059 4 gusting 13 27.2
2014-Oct-24 03:20 059 6 gusting 14 27.2
2014-Oct-24 03:05 079 6 gusting 13 27.2
2014-Oct-24 02:50 060 4 gusting 11 27.2
2014-Oct-24 02:35 090 6 gusting 13 27.2
2014-Oct-24 02:20 052 6 gusting 11 27.2
2014-Oct-24 02:05 094 6 gusting 11 27.2
2014-Oct-24 01:50 128 5 gusting 10 26.7
2014-Oct-24 01:35 225 3 gusting 12 27.2
2014-Oct-24 01:20 086 4 gusting 11 26.7
2014-Oct-24 01:05 095 5 gusting 9 27.2
2014-Oct-24 00:50 090 1 gusting 12 26.7
2014-Oct-24 00:35 095 5 gusting 11 26.7
2014-Oct-24 00:20 087 5 gusting 10 26.7
2014-Oct-24 00:05 089 4 gusting 9 26.1
2014-Oct-23 23:50 069 3 gusting 8 26.1
2014-Oct-23 23:35 085 2 gusting 6 26.1
2014-Oct-23 23:20 119 2 gusting 6 26.1
2014-Oct-23 23:05 066 1 gusting 6 25.6
2014-Oct-23 22:50 102 3 gusting 6 25.0
2014-Oct-23 22:35 107 1 gusting 7 24.4
2014-Oct-23 22:20 105 2 gusting 6 24.4
2014-Oct-23 22:05 128 1 gusting 6 23.3
2014-Oct-23 21:50 114 1 gusting 4 22.2
2014-Oct-23 21:35 190 1 gusting 5 21.1
2014-Oct-23 21:19 136 1 gusting 4 20.0
2014-Oct-23 21:05 180 19.4
2014-Oct-23 20:49 243 18.3
2014-Oct-23 20:34 168 0 gusting 2 17.2
2014-Oct-23 20:19 184 16.7
2014-Oct-23 20:04 178 16.1
2014-Oct-23 19:49 277 15.6
2014-Oct-23 19:34 213 15.6
2014-Oct-23 19:19 193 15.6
2014-Oct-23 19:04 192 15.6
2014-Oct-23 18:49 192 16.1
2014-Oct-23 18:19 173 15.6
2014-Oct-23 18:04 173 15.6
2014-Oct-23 17:49 189 15.6
2014-Oct-23 17:34 174 16.1
2014-Oct-23 17:19 233 16.1
2014-Oct-23 17:04 285 16.1
2014-Oct-23 16:49 196 16.1
2014-Oct-23 16:34 195 16.7
2014-Oct-23 16:19 195 16.7
2014-Oct-23 16:04 196 17.2
2014-Oct-23 15:49 196 17.8
2014-Oct-23 15:34 189 17.8
2014-Oct-23 15:19 192 17.8
2014-Oct-23 15:04 190 17.8
2014-Oct-23 14:49 197 17.8
2014-Oct-23 14:34 261 18.3
2014-Oct-23 14:18 263 18.3
2014-Oct-23 14:03 203 18.9
2014-Oct-23 13:48 203 19.4
2014-Oct-23 13:33 096 20.0
2014-Oct-23 13:18 083 20.6
2014-Oct-23 13:03 079 20.6
2014-Oct-23 12:48 087 21.1
2014-Oct-23 12:33 088 21.1
2014-Oct-23 12:18 105 1 gusting 6 21.7
2014-Oct-23 12:03 112 2 gusting 6 21.7
2014-Oct-23 11:48 107 1 gusting 4 21.7
2014-Oct-23 11:33 114 0 gusting 3 21.7
2014-Oct-23 11:18 105 2 gusting 7 22.2
2014-Oct-23 11:03 108 2 gusting 6 22.2
2014-Oct-23 10:48 117 4 gusting 7 22.2
2014-Oct-23 10:33 094 2 gusting 11 22.2
2014-Oct-23 10:18 131 2 gusting 7 22.2
2014-Oct-23 10:03 101 4 gusting 9 22.2
2014-Oct-23 09:48 104 3 gusting 6 22.2
2014-Oct-23 09:33 114 4 gusting 10 22.8
2014-Oct-23 09:18 110 5 gusting 10 22.8
2014-Oct-23 09:03 100 5 gusting 9 22.8
2014-Oct-23 08:48 100 4 gusting 11 22.8
2014-Oct-23 08:33 076 4 gusting 10 23.3
2014-Oct-23 08:18 059 4 gusting 9 23.3
2014-Oct-23 08:03 085 6 gusting 12 23.3
2014-Oct-23 07:48 076 6 gusting 12 23.9
2014-Oct-23 07:33 097 6 gusting 12 24.4
2014-Oct-23 07:18 064 6 gusting 14 24.4
2014-Oct-23 07:03 123 7 gusting 13 25.0
2014-Oct-23 06:48 101 6 gusting 14 25.6
2014-Oct-23 06:33 079 6 gusting 13 25.6
2014-Oct-23 06:18 101 8 gusting 15 26.1
2014-Oct-23 06:03 119 7 gusting 17 26.1